Flag for Russia Weather past 2 weeks in Saint-Petersburg, Russia

27 °F

Passing clouds.

Feels Like: 17 °F
Forecast: 28 / 40 °F
Wind: 10 mph from South

Location: St. Petersburg

Current Time: Nov 26, 2015 at 7:35:06 PM

Latest Report: Nov 26, 2015 at 7:00 PM

Visibility: N/A

Pressure: 29.92 "Hg

Humidity: 74%

Dew point: 19 °F

Location of Saint-PetersburgLocation

Historic Weather in Saint-Petersburg — Graph


Saint-Petersburg temperature yesterday

Maximum temperature yesterday: 32 °F (at 1:00 AM)
Minimum temperature yesterday: 30 °F (at 12:00 AM)
Average temperature yesterday: 31 °F

Past Weeks' High & Low Weather Summary

High43 °F (Nov 12, 3:00 PM)100% (Nov 11, 7:30 PM)30.07 "Hg (Nov 11, 7:30 PM)
Low25 °F (Nov 24, 8:30 AM)69% (Nov 26, 12:30 PM)29.03 "Hg (Nov 21, 4:30 AM)
Average34 °F92%29.63 "Hg
* Reported Nov 11 6:00 PM — Nov 26 6:30 PM, Saint-Petersburg, Weather by CustomWeather, © 2015

Note: Actual official high and low records may vary slightly from our data, if they occured in-between our weather recording intervals... More about our weather records


Saint-Petersburg weather history for previous 24 hours

Time TempWeatherWind HumidityBarometerVisibility
6:30 PM
Thu, Nov 26
27 °FClear.10 mph80%29.92 "Hg10 mi
6:00 PM27 °FPassing clouds.10 mph74%29.95 "HgN/A
5:30 PM28 °FClear.10 mph74%29.95 "Hg10 mi
5:00 PM28 °FSunny.10 mph74%29.95 "Hg10 mi
4:30 PM28 °FPassing clouds.8 mph74%29.95 "HgN/A
4:00 PM28 °FPassing clouds.8 mph74%29.95 "HgN/A
3:30 PM28 °FPassing clouds.10 mph74%29.95 "HgN/A
3:00 PM28 °FPassing clouds.8 mph74%29.95 "HgN/A
2:30 PM30 °FPassing clouds.8 mph69%29.95 "HgN/A
2:00 PM30 °FPassing clouds.8 mph69%29.95 "HgN/A
1:30 PM30 °FPassing clouds.10 mph69%29.98 "HgN/A
1:00 PM30 °FPassing clouds.10 mph69%29.98 "HgN/A
12:30 PM30 °FPassing clouds.10 mph69%29.98 "HgN/A
12:00 PM30 °FSunny.8 mph75%29.98 "Hg10 mi
11:30 AM28 °FSunny.6 mph80%29.98 "Hg10 mi
11:00 AM28 °FSunny.6 mph80%29.98 "Hg10 mi
10:30 AM28 °FSunny.8 mph80%29.98 "Hg10 mi
10:00 AM28 °FPassing clouds.6 mph80%29.95 "HgN/A
9:30 AM28 °FPassing clouds.6 mph80%29.95 "HgN/A
9:00 AM28 °FPassing clouds.6 mph80%29.95 "HgN/A
8:30 AM28 °FPassing clouds.6 mph80%29.92 "HgN/A
8:00 AM28 °FPassing clouds.6 mph80%29.92 "HgN/A
7:30 AM28 °FPassing clouds.3 mph86%29.92 "HgN/A
6:30 AM28 °FClear.3 mph86%29.92 "Hg10 mi
6:00 AM28 °FPassing clouds.3 mph86%29.92 "HgN/A
5:30 AM28 °FClear.3 mph86%29.92 "Hg10 mi
5:00 AM28 °FClear.3 mph86%29.92 "Hg10 mi
4:30 AM30 °FClear.6 mph80%29.92 "Hg10 mi
4:00 AM30 °FClear.3 mph80%29.92 "Hg10 mi
3:30 AM28 °FPassing clouds.3 mph86%29.92 "HgN/A
3:00 AM28 °FPassing clouds.3 mph86%29.92 "HgN/A
2:00 AM30 °FPassing clouds.3 mph80%29.92 "HgN/A
1:30 AM30 °FClear.3 mph80%29.92 "Hg10 mi
1:00 AM30 °FPassing clouds.3 mph80%29.92 "HgN/A
12:30 AM30 °FClear.3 mph80%29.92 "Hg10 mi
12:00 AM30 °FClear.3 mph75%29.89 "Hg10 mi
11:30 PM
Wed, Nov 25
30 °FClear.3 mph80%29.89 "Hg10 mi
11:00 PM30 °FClear.3 mph80%29.89 "Hg10 mi
10:30 PM30 °FClear.3 mph80%29.89 "Hg10 mi
10:00 PM30 °FClear.6 mph80%29.89 "Hg10 mi
9:30 PM30 °FClear.6 mph80%29.89 "Hg10 mi
9:00 PM30 °FClear.8 mph80%29.86 "Hg10 mi
8:30 PM30 °FClear.8 mph86%29.86 "Hg10 mi
8:00 PM32 °FClear.8 mph80%29.86 "Hg10 mi
7:30 PM30 °FClear.8 mph86%29.86 "Hg10 mi
7:00 PM30 °FPassing clouds.10 mph86%29.86 "HgN/A
Weather by CustomWeather, © 2015

See weather overviewHow to use our weather pages